Location: Klein M�hlingen
(51.9472°N, 11.7453°E)
Time: 23:19:02
(UTC+00:00)

CZ-2C R/B - Pass Details

Date: 09 April 2020
Orbit: 639 x 705 km, 98.4° (Epoch: 29 May)

Event Time Altitude Azimuth Distance (km) Brightness Sun altitude
Rises 18:46:49 0° 19° (NNE) 3,089 7.2 -7.5°
Reaches altitude 10° 18:49:12 10° 27° (NNE) 2,158 6.3 -7.8°
Maximum altitude 18:53:42 42° 98° (E) 976 4.1 -8.5°
Drops below altitude 10° 18:58:04 10° 170° (S) 2,104 5.9 -9.1°
Sets 19:00:22 0° 177° (S) 3,002 6.8 -9.4°
